Simultaneous Nadir Overpasses (SNOs) Predictions

Prediction of SNOs between METOP-B and NOAA-19 Satellite Orbit:

Table of predicted SNOs for the next 14.0 days since TLE Epoch: 12/9/2023
Index Date (METOP-B) Time (METOP-B) Lat,Lon (METOP-B) SZA (METOP-B ) Date (NOAA-19) Time (NOAA-19) Lat,Lon (NOAA-19) SZA (NOAA-19 ) Distance(km) Time Diff (sec)
1 12/14/2023 13:00:44 -80.56,-167.86 75.19 12/14/2023 12:59:29 -80.55,-168.00 75.23 2.91 75
2 12/14/2023 13:51:24 80.57, -0.37 104.84 12/14/2023 13:50:27 80.57, -0.31 104.83 1.18 57
3 12/14/2023 14:42:05 -80.57, 166.95 75.16 12/14/2023 14:41:26 -80.57, 167.05 75.16 1.79 39
4 12/14/2023 15:32:45 80.58, -25.56 104.87 12/14/2023 15:32:25 80.58, -25.61 104.86 0.82 20
5 12/14/2023 16:23:25 -80.60, 142.10 75.09 12/14/2023 16:23:23 -80.60, 142.10 75.09 0.32 2
6 12/14/2023 17:14:05 80.61, -50.41 104.94 12/14/2023 17:14:22 80.60, -50.55 104.92 2.75 17
7 12/14/2023 18:04:46 -80.61, 116.91 75.07 12/14/2023 18:05:21 -80.61, 116.81 75.07 1.94 35
8 12/14/2023 18:55:26 80.62, -75.60 104.96 12/14/2023 18:56:19 80.63, -75.50 104.99 1.92 53



Historial Predications of SNOs between METOP-B and NOAA-19
